Flag for Guyana Weather past 2 weeks in Linden, Guyana

Now
75 °F

Passing clouds.


Feels Like: 73 °F
Forecast: 74 / 89 °F
Wind: No wind

Location: Georgetown/Cheddi Jagan International Airport


UV Index: 10 (Very high)

Visibility: N/A


Pressure: 29.89 "Hg

Humidity: 100%

Dew point: 75 °F

Location of LindenLocation

Historic Weather in Linden

°F

Linden temperature yesterday

Maximum temperature yesterday: 88 °F (at 2:00 PM)
Minimum temperature yesterday: 73 °F (at 4:00 AM)
Average temperature yesterday: 78 °F

Past Weeks' High & Low Weather Summary

 TemperatureHumidityPressure
High90 °F (Apr 2, 12:00 PM)100% (Apr 1, 11:00 PM)30.04 "Hg (Apr 1, 11:00 PM)
Low68 °F (Apr 4, 6:00 AM)52% (Apr 2, 1:00 PM)29.77 "Hg (Apr 15, 3:00 PM)
Average78 °F85%29.92 "Hg
* Reported Apr 1 11:00 PM — Apr 16 11:00 PM, Linden, Weather by CustomWeather, © 2014

Note: Actual official high and low records may vary slightly from our data, if they occured in-between our weather recording intervals... More about our weather records

Advertising

Historic Weather Conditions — Data for Previous 24 hours

 ConditionsComfort  
Time TempWeatherWind HumidityBarometerVisibility
11:00 PM
Apr 16
75 °FPartly cloudy.No wind100%29.92 "HgN/A
10:00 PM77 °FSprinkles. Partly cloudy.5 mph94%29.89 "Hg6 mi
9:00 PM77 °FPassing clouds.5 mph94%29.89 "HgN/A
8:00 PM77 °FPassing clouds.5 mph94%29.86 "HgN/A
7:00 PM79 °FPartly cloudy.5 mph89%29.86 "HgN/A
6:00 PM81 °FPartly cloudy.9 mph84%29.83 "HgN/A
5:00 PM82 °FBroken clouds.12 mph79%29.80 "HgN/A
4:00 PM86 °FBroken clouds.12 mph70%29.83 "HgN/A
3:00 PM86 °FBroken clouds.14 mph66%29.83 "HgN/A
2:00 PM88 °FBroken clouds.12 mph66%29.83 "HgN/A
1:00 PM84 °FBroken clouds.9 mph79%29.89 "HgN/A
12:00 PM79 °FMostly cloudy.5 mph89%29.92 "HgN/A
11:00 AM75 °FMostly cloudy.5 mph100%29.95 "Hg6 mi
10:00 AM77 °FLight rain. Mostly cloudy.5 mph94%29.95 "Hg5 mi
9:00 AM75 °FHeavy rain. Mostly cloudy.5 mph94%29.95 "Hg2 mi
8:00 AM75 °FRain showers. Partly sunny.7 mph94%29.92 "Hg4 mi
7:30 AM77 °FRain showers. Partly sunny.9 mph94%29.92 "Hg4 mi
7:00 AM77 °FBroken clouds.No wind94%29.89 "HgN/A
6:00 AM75 °FScattered clouds.No wind94%29.86 "HgN/A
5:00 AM75 °FPassing clouds.5 mph94%29.86 "HgN/A
4:00 AM73 °FPassing clouds.5 mph100%29.86 "HgN/A
3:30 AM75 °FPassing clouds.3 mph94%29.83 "HgN/A
2:00 AM75 °FPassing clouds.5 mph94%29.83 "HgN/A
1:00 AM75 °FPassing clouds.5 mph94%29.86 "HgN/A
Weather by CustomWeather, © 2014

See weather overview